Simultaneous Nadir Overpasses (SNOs) Predictions

Prediction of SNOs between NOAA-15 and METOP-C Satellite Orbit:

Table of predicted SNOs for the next 14.0 days since TLE Epoch: 8/6/2022
Index Date (NOAA-15) Time (NOAA-15) Lat,Lon (NOAA-15) SZA (NOAA-15 ) Date (METOP-C) Time (METOP-C) Lat,Lon (METOP-C) SZA (METOP-C ) Distance(km) Time Diff (sec)
1 08/14/2022 03:25:05 -81.08, -13.30 111.49 08/14/2022 03:23:51 -81.07, -13.27 111.53 1.51 74
2 08/14/2022 04:15:38 81.07, 154.27 68.53 08/14/2022 04:14:32 81.07, 154.10 68.49 2.88 66
3 08/14/2022 05:06:06 -81.07, -38.30 111.46 08/14/2022 05:05:12 -81.08, -38.41 111.48 2.00 54
4 08/14/2022 05:56:40 81.08, 128.90 68.55 08/14/2022 05:55:53 81.08, 128.97 68.54 1.22 47
5 08/14/2022 06:47:08 -81.07, -63.66 111.44 08/14/2022 06:46:33 -81.08, -63.54 111.44 2.39 35
6 08/14/2022 07:37:42 81.08, 103.52 68.56 08/14/2022 07:37:15 81.07, 103.46 68.54 1.60 27
7 08/14/2022 08:28:10 -81.08, -89.03 111.43 08/14/2022 08:27:55 -81.08, -89.05 111.43 0.34 15
8 08/14/2022 09:18:44 81.09, 78.15 68.58 08/14/2022 09:18:36 81.08, 78.33 68.59 3.05 8
9 08/14/2022 10:09:12 -81.08,-114.40 111.41 08/14/2022 10:09:17 -81.07,-114.55 111.43 3.07 5
10 08/14/2022 10:59:45 81.07, 53.16 68.62 08/14/2022 10:59:57 81.09, 53.19 68.64 1.49 12
11 08/14/2022 11:50:14 -81.09,-139.76 111.40 08/14/2022 11:50:38 -81.08,-139.69 111.39 1.57 24
12 08/14/2022 12:40:47 81.08, 27.78 68.63 08/14/2022 12:41:19 81.08, 27.68 68.64 1.72 32
13 08/14/2022 13:31:15 -81.08,-164.76 111.36 08/14/2022 13:31:59 -81.09,-164.83 111.34 1.64 44
14 08/14/2022 14:21:49 81.08, 2.41 68.65 08/14/2022 14:22:40 81.09, 2.55 68.68 2.41 51
15 08/14/2022 15:12:17 -81.08, 169.88 111.34 08/14/2022 15:13:20 -81.09, 170.04 111.29 3.18 63



Historial Predications of SNOs between NOAA-15 and METOP-C
